Tracking 29892 objects as of 21-Nov-2024
HD Live streaming from Space Station
objects crossing your sky now

COSMOS 1275 DEB

Track COSMOS 1275 DEB now!
10-day predictions


NORAD ID: 12782
Int'l Code: 1981-053DY
Perigee: 937.7 km
Apogee: 1,050.5 km
Inclination: 83.0 °
Period: 104.8 minutes
Semi major axis: 7365 km
RCS: 0.0185 m2 (small)
Launch date: June 4, 1981
Source: Commonwealth of Independent States (former USSR) (CIS)
Launch site: PLESETSK MISSILE AND SPACE COMPLEX (PKMTR)

Note: This is SATELLITE DEBRIS
Your satellite tracking list
Your tracking list is empty




NASA's NSSDC Master Catalog

Two Line Element Set (TLE):
1 12782U 81053DY  24324.62042466  .00000860  00000-0  88942-3 0  9990
2 12782  82.9999 168.9063 0076535  28.7930  27.8634 13.73517568154406
Source of the keplerian elements: AFSPC